SCP
0 0 0 0 0 0 0 0 0 0 0 0 0 0 0 0 0 0 0 0 0 0 0 0 0 0 0
0 0 0 0 0 0 0 0 0 0 0 0 0 0 0 0 0 0 0 0 0 0 0 0 0 0 0
0 0 0 0 0 0 0 0 0 0 0 0 0 0 0 0 0 0 0 0 0 0 0 0 0 0 0
0 0 0 0 0 0 0 0 0 0 0 0 0 0 0 0 0 0 0 0 0 0 0 0 0 0 0
0 0 0 0 0 0 0 0 0 0 0 0 0 0 0 0 0 0 0 0 0 0 0 0 0 0 0
0 0 0 0 0 0 0 0 0 0 0 0 0 0 0 0 0 0 0 0 0 0 0 0 0 0 0
0 0 0 0 0 0 0 0 0 0 0 0 0 0 0 0 0 0 0 0 0 0 0 0 0 0 0
0 0 0 0 0 0 0 0 0 0 0 0 0 0 0 0 0 0 0 0 0 0 0 0 0 0 0
0 0 0 0 0 0 0 0 0 0 0 0 0 0 0 0 0 0 0 0 0 0 0 0 0 0 0
0 0 0 0 0 0 0 0 0 0 0 0 0 0 0 0 0 0 0 0 0 0 0 0 0 0 0
0 0 0 0 0 0 0 0 0 0 0 0 0 0 0 0 0 0 0 0 0 0 0 0 0 0 0
0 0 0 0 0 0 0 0 0 0 0 0 0 0 0 0 0 0 0 0 0 0 0 0 0 0 0
0 0 0 0 0 0 0 0 0 0 0 0 0 0 0 0 0 0 0 0 0 0 0 0 0 0 0
0 0 0 0 0 0 0 0 0 0 0 0 0 0 0 0 0 0 0 0 0 0 0 0 0 0 0
0 0 0 0 0 0 0 0 0 0 0 0 0 0 0 0 0 0 0 0 0 0 0 0 0 0 0
0 0 0 0 0 0 0 0 0 0 0 0 0 0 0 0 0 0 0 0 0 0 0 0 0 0 0
Wind_Speed_500mb
9 7 7 7 8 10 12 15 18 22 25 27 30 31 31 33 34 34 36 38 40 40 42 46 49 49 49
7 6 7 8 10 12 15 18 21 24 28 29 31 32 33 34 33 34 36 36 39 41 42 43 46 49 54
8 6 7 9 11 13 16 20 24 28 32 33 32 31 31 31 30 29 29 33 34 35 38 38 43 48 51
10 7 7 10 12 14 19 24 30 34 34 32 32 31 30 30 28 25 24 27 29 31 30 34 37 44 52
11 9 8 11 13 17 22 28 32 32 29 28 26 27 26 26 26 26 25 26 27 27 28 31 33 37 45
13 9 9 11 16 20 25 29 31 27 24 23 26 27 26 26 26 25 23 22 26 26 25 28 29 30 35
14 11 11 13 16 20 24 28 24 24 23 25 25 24 27 27 25 22 22 22 22 22 22 25 23 20 16
15 11 13 16 17 20 23 21 20 20 23 22 23 23 27 30 30 24 25 23 18 14 14 10 13 16 13
17 12 16 16 17 20 19 16 17 19 20 22 21 26 30 31 23 20 20 20 12 15 3 9 12 21 20
16 14 16 16 18 20 15 13 12 16 16 16 23 27 27 24 25 27 26 13 10 12 1 3 12 16 23
17 15 16 16 18 16 13 11 9 11 9 14 23 26 24 25 28 28 24 18 11 13 3 7 4 12 21
18 16 15 16 16 12 10 7 9 11 10 15 22 23 24 24 21 23 20 19 19 18 12 8 7 11 15
16 17 15 15 14 9 6 3 6 7 5 13 18 20 22 26 22 24 17 12 16 17 19 11 15 14 17
18 17 16 15 12 8 4 3 4 5 4 12 15 19 20 25 18 14 17 7 11 8 18 19 14 22 28
18 16 15 14 12 6 5 4 3 2 4 12 15 17 21 23 20 9 9 8 4 7 15 8 10 12 37
18 15 12 11 11 6 6 5 3 2 5 8 11 16 22 22 15 8 8 7 4 8 7 11 10 39 23
Wind_Direction_500mb
260 277 294 304 310 306 314 320 320 320 319 316 313 312 307 298 292 286 279 271 266 260 250 243 239 232 231
256 281 296 300 303 311 322 320 323 321 320 316 312 309 304 301 294 287 281 274 267 261 255 250 245 235 229
233 254 275 291 304 323 319 324 324 328 326 322 318 320 316 309 306 300 290 277 271 264 258 247 239 235 228
226 232 274 298 320 320 326 331 336 332 330 331 328 321 322 319 315 305 295 288 278 267 259 253 240 231 228
222 242 284 317 319 324 332 338 335 333 333 330 330 329 322 318 315 310 299 289 281 272 259 254 247 236 228
234 254 300 317 315 329 336 334 332 332 335 341 338 333 326 323 321 318 311 299 285 276 270 258 249 241 232
245 268 304 305 313 325 331 330 331 333 340 342 340 337 334 334 329 328 324 314 301 272 265 266 236 225 234
252 274 295 298 311 319 327 327 329 337 348 348 344 348 341 334 332 329 330 324 317 291 274 270 209 220 209
242 266 285 294 306 314 323 327 333 348 356 348 355 350 344 347 352 342 332 325 315 315 259 251 213 209 215
234 253 270 287 303 313 319 331 341 360 357 356 359 354 356 10 15 360 347 347 324 339 257 230 216 207 214
229 246 264 284 300 310 319 333 358 10 1 3 10 5 5 21 11 359 358 15 3 359 75 84 53 196 205
228 247 260 281 300 311 328 348 17 9 351 10 10 12 6 7 9 2 356 34 41 48 66 70 83 125 145
233 246 261 282 295 297 319 327 20 0 359 9 13 10 3 5 2 4 9 43 56 70 90 90 104 129 132
225 242 266 283 283 279 275 288 360 357 40 21 16 6 6 3 1 15 24 82 60 48 104 93 86 117 116
224 242 264 279 265 255 253 270 314 27 79 45 25 17 2 0 357 19 34 21 100 34 37 101 89 102 114
226 243 265 273 265 254 253 253 243 120 124 72 358 360 359 4 9 42 55 29 152 137 5 133 96 144 126
Wind_Speed_850mb
9 7 7 7 8 10 12 15 18 22 25 27 30 31 31 33 34 34 36 38 40 40 42 46 49 49 49
7 6 7 8 10 12 15 18 21 24 28 29 31 32 33 34 33 34 36 36 39 41 42 43 46 49 54
8 6 7 9 11 13 16 20 24 28 32 33 32 31 31 31 30 29 29 33 34 35 38 38 43 48 51
10 7 7 10 12 14 19 24 30 34 34 32 32 31 30 30 28 25 24 27 29 31 30 34 37 44 52
11 9 8 11 13 17 22 28 32 32 29 28 26 27 26 26 26 26 25 26 27 27 28 31 33 37 45
13 9 9 11 16 20 25 29 31 27 24 23 26 27 26 26 26 25 23 22 26 26 25 28 29 30 35
14 11 11 13 16 20 24 28 24 24 23 25 25 24 27 27 25 22 22 22 22 22 22 25 23 20 16
15 11 13 16 17 20 23 21 20 20 23 22 23 23 27 30 30 24 25 23 18 14 14 10 13 16 13
17 12 16 16 17 20 19 16 17 19 20 22 21 26 30 31 23 20 20 20 12 15 3 9 12 21 20
16 14 16 16 18 20 15 13 12 16 16 16 23 27 27 24 25 27 26 13 10 12 1 3 12 16 23
17 15 16 16 18 16 13 11 9 11 9 14 23 26 24 25 28 28 24 18 11 13 3 7 4 12 21
18 16 15 16 16 12 10 7 9 11 10 15 22 23 24 24 21 23 20 19 19 18 12 8 7 11 15
16 17 15 15 14 9 6 3 6 7 5 13 18 20 22 26 22 24 17 12 16 17 19 11 15 14 17
18 17 16 15 12 8 4 3 4 5 4 12 15 19 20 25 18 14 17 7 11 8 18 19 14 22 28
18 16 15 14 12 6 5 4 3 2 4 12 15 17 21 23 20 9 9 8 4 7 15 8 10 12 37
18 15 12 11 11 6 6 5 3 2 5 8 11 16 22 22 15 8 8 7 4 8 7 11 10 39 23
Wind_Direction_850mb
260 277 294 304 310 306 314 320 320 320 319 316 313 312 307 298 292 286 279 271 266 260 250 243 239 232 231
256 281 296 300 303 311 322 320 323 321 320 316 312 309 304 301 294 287 281 274 267 261 255 250 245 235 229
233 254 275 291 304 323 319 324 324 328 326 322 318 320 316 309 306 300 290 277 271 264 258 247 239 235 228
226 232 274 298 320 320 326 331 336 332 330 331 328 321 322 319 315 305 295 288 278 267 259 253 240 231 228
222 242 284 317 319 324 332 338 335 333 333 330 330 329 322 318 315 310 299 289 281 272 259 254 247 236 228
234 254 300 317 315 329 336 334 332 332 335 341 338 333 326 323 321 318 311 299 285 276 270 258 249 241 232
245 268 304 305 313 325 331 330 331 333 340 342 340 337 334 334 329 328 324 314 301 272 265 266 236 225 234
252 274 295 298 311 319 327 327 329 337 348 348 344 348 341 334 332 329 330 324 317 291 274 270 209 220 209
242 266 285 294 306 314 323 327 333 348 356 348 355 350 344 347 352 342 332 325 315 315 259 251 213 209 215
234 253 270 287 303 313 319 331 341 360 357 356 359 354 356 10 15 360 347 347 324 339 257 230 216 207 214
229 246 264 284 300 310 319 333 358 10 1 3 10 5 5 21 11 359 358 15 3 359 75 84 53 196 205
228 247 260 281 300 311 328 348 17 9 351 10 10 12 6 7 9 2 356 34 41 48 66 70 83 125 145
233 246 261 282 295 297 319 327 20 0 359 9 13 10 3 5 2 4 9 43 56 70 90 90 104 129 132
225 242 266 283 283 279 275 288 360 357 40 21 16 6 6 3 1 15 24 82 60 48 104 93 86 117 116
224 242 264 279 265 255 253 270 314 27 79 45 25 17 2 0 357 19 34 21 100 34 37 101 89 102 114
226 243 265 273 265 254 253 253 243 120 124 72 358 360 359 4 9 42 55 29 152 137 5 133 96 144 126